GW2840 Weather Reports


time (UTC)temp
F
wind
direction
speed
knots
gust
knots
rain 1hr
in
rain 24hr
in
rain mn
in
humidity
%
barometer
mb
20260504223941 69 115 0.9 2.6 0.00 0.00 0.00 31 1004.1
20260504223437 69 141 0.0 1.7 0.00 0.00 0.00 33 1003.9
20260504222933 70 146 0.0 1.7 0.00 0.00 0.00 32 1003.9
20260504222431 70 132 1.7 2.6 0.00 0.00 0.00 31 1003.9
20260504221929 70 119 0.9 1.7 0.00 0.00 0.00 31 1003.9
20260504221425 70 201 2.6 4.3 0.00 0.00 0.00 30 1003.8
20260504220922 70 135 0.9 1.7 0.00 0.00 0.00 31 1004.0
20260504220419 70 195 0.9 4.3 0.00 0.00 0.00 31 1003.9
20260504215916 71 240 1.7 2.6 0.00 0.00 0.00 31 1003.9
20260504215413 71 217 1.7 1.7 0.00 0.00 0.00 31 1004.0
20260504214909 71 80 0.9 1.7 0.00 0.00 0.00 30 1003.9
20260504214406 71 233 2.6 2.6 0.00 0.00 0.00 30 1004.0
20260504213903 71 172 0.9 1.7 0.00 0.00 0.00 30 1003.9
20260504213358 71 135 0.9 2.6 0.00 0.00 0.00 30 1003.9
20260504212856 71 124 1.7 2.6 0.00 0.00 0.00 30 1004.1
20260504212352 71 111 3.5 6.1 0.00 0.00 0.00 30 1003.8
20260504211850 71 236 2.6 2.6 0.00 0.00 0.00 29 1004.2
20260504211346 71 295 1.7 4.3 0.00 0.00 0.00 30 1003.9
20260504210843 71 192 1.7 1.7 0.00 0.00 0.00 30 1004.2
20260504210340 71 247 4.3 6.1 0.00 0.00 0.00 29 1004.1
20260504205837 71 151 0.0 1.7 0.00 0.00 0.00 31 1004.0
20260504205335 72 241 1.7 2.6 0.00 0.00 0.00 28 1004.1
20260504204833 71 266 2.6 2.6 0.00 0.00 0.00 29 1004.1
20260504204331 71 277 2.6 5.2 0.00 0.00 0.00 29 1004.0
20260504203830 71 226 2.6 2.6 0.00 0.00 0.00 29 1003.9
20260504203327 72 292 3.5 4.3 0.00 0.00 0.00 29 1004.2
20260504202822 72 142 0.9 2.6 0.00 0.00 0.00 29 1003.9
20260504202320 72 176 2.6 4.3 0.00 0.00 0.00 29 1004.0
20260504201816 72 2 2.6 5.2 0.00 0.00 0.00 29 1004.0
20260504201314 72 250 3.5 4.3 0.00 0.00 0.00 28 1004.0
20260504200811 72 152 0.0 2.6 0.00 0.00 0.00 28 1004.0
20260504200308 72 219 1.7 4.3 0.00 0.00 0.00 28 1004.0
20260504195804 73 153 1.7 5.2 0.00 0.00 0.00 27 1004.0
20260504195300 73 199 2.6 4.3 0.00 0.00 0.00 28 1004.0
20260504194757 73 176 1.7 2.6 0.00 0.00 0.00 28 1004.0
20260504194253 73 221 2.6 2.6 0.00 0.00 0.00 27 1004.1
20260504193749 74 244 2.6 5.2 0.00 0.00 0.00 27 1004.2
20260504193247 73 170 1.7 2.6 0.00 0.00 0.00 27 1004.0
20260504192745 73 355 2.6 5.2 0.00 0.00 0.00 27 1004.1
20260504192243 73 228 1.7 4.3 0.00 0.00 0.00 27 1004.1
20260504191741 73 78 1.7 4.3 0.00 0.00 0.00 27 1004.1
20260504191238 73 109 1.7 4.3 0.00 0.00 0.00 27 1004.1
20260504190733 72 169 0.9 1.7 0.00 0.00 0.00 27 1004.1
20260504190230 72 185 3.5 5.2 0.00 0.00 0.00 28 1004.4
20260504185726 73 151 1.7 1.7 0.00 0.00 0.00 27 1004.4
20260504185223 72 243 2.6 2.6 0.00 0.00 0.00 27 1004.4
20260504184719 72 92 6.1 7.8 0.00 0.00 0.00 27 1004.3
20260504184215 71 124 1.7 4.3 0.00 0.00 0.00 27 1004.4
20260504183711 71 211 0.9 6.1 0.00 0.00 0.00 27 1004.5
20260504183208 71 177 2.6 2.6 0.00 0.00 0.00 27 1004.6
20260504182707 71 155 2.6 4.3 0.00 0.00 0.00 28 1004.6
20260504182203 71 230 2.6 4.3 0.00 0.00 0.00 27 1004.7
20260504181701 72 157 2.6 6.1 0.00 0.00 0.00 26 1004.9
20260504181158 71 163 2.6 4.3 0.00 0.00 0.00 27 1004.7
20260504180657 71 221 3.5 5.2 0.00 0.00 0.00 27 1004.6
20260504180155 70 354 6.1 7.0 0.00 0.00 0.00 28 1004.7
20260504175652 71 158 1.7 4.3 0.00 0.00 0.00 27 1004.8
20260504175149 71 157 0.9 4.3 0.00 0.00 0.00 28 1004.8
20260504174647 71 60 0.9 4.3 0.00 0.00 0.00 28 1004.6
20260504174144 70 83 1.7 2.6 0.00 0.00 0.00 28 1004.9
20260504173641 70 174 0.9 4.3 0.00 0.00 0.00 29 1004.9
20260504173138 70 271 4.3 5.2 0.00 0.00 0.00 28 1004.9
20260504172635 70 114 1.7 7.8 0.00 0.00 0.00 27 1004.9
20260504172131 69 244 1.7 2.6 0.00 0.00 0.00 30 1004.8
20260504171628 69 18 4.3 7.0 0.00 0.00 0.00 28 1005.1
20260504171125 70 256 3.5 5.2 0.00 0.00 0.00 28 1005.1
20260504170621 69 337 2.6 4.3 0.00 0.00 0.00 28 1005.1
20260504170119 69 185 0.9 4.3 0.00 0.00 0.00 29 1005.3
20260504151004 64 112 2.6 5.2 0.00 0.00 0.00 33 1006.6
20260504150502 64 208 1.7 4.3 0.00 0.00 0.00 35 1006.7
20260504140927 63 149 0.9 1.7 0.00 0.00 0.00 38 1007.0
20260504140424 63 215 0.9 2.6 0.00 0.00 0.00 38 1007.0
20260504130349 59 357 1.7 1.7 0.00 0.00 0.00 42 1007.7
20260504120312 53 123 0.9 1.7 0.00 0.00 0.00 47 1008.2
20260504110236 47 182 0.9 1.7 0.00 0.00 0.00 55 1007.8
20260504100154 44 153 0.0 0.9 0.00 0.00 0.00 60 1007.9
20260504090116 43 121 0.0 0.0 0.00 0.00 0.00 66 1007.8
20260504081547 43 124 0.0 0.0 0.00 0.00 0.00 62 1007.6
20260504081042 43 136 0.0 0.0 0.00 0.00 0.00 61 1007.8
20260504080539 43 135 0.0 0.9 0.00 0.00 0.00 62 1007.6
20260504050352 39 145 0.0 0.9 0.00 0.00 0.00 68 1007.9
20260504045849 39 121 0.0 0.0 0.00 0.00 0.00 70 1007.9
20260504045344 38 124 0.0 0.9 0.00 0.00 0.00 72 1007.9
20260504044841 37 125 0.0 0.0 0.00 0.00 0.00 74 1008.0
20260504044339 37 132 0.0 0.0 0.00 0.00 0.00 73 1007.9
20260504043836 37 138 0.0 0.9 0.00 0.00 0.00 74 1008.0
20260504043332 37 128 0.0 0.0 0.00 0.00 0.00 75 1008.0
20260504042830 37 127 0.0 0.0 0.00 0.00 0.00 75 1008.0
20260504042326 37 125 0.0 0.0 0.00 0.00 0.00 73 1008.0
20260504041823 37 125 0.0 0.0 0.00 0.00 0.00 74 1007.8
20260504041319 37 129 0.0 0.0 0.00 0.00 0.00 74 1007.9
20260504040815 37 150 0.0 0.9 0.00 0.00 0.00 74 1007.9
20260504040313 37 141 0.0 0.0 0.00 0.00 0.00 74 1008.0
20260504035808 37 142 0.0 0.9 0.00 0.00 0.00 73 1007.8
20260504035306 38 126 0.0 0.9 0.00 0.00 0.00 73 1007.7
20260504034803 38 136 0.0 0.0 0.00 0.00 0.00 71 1007.9
20260504034301 38 129 0.0 0.0 0.00 0.00 0.00 71 1007.7
20260504033758 39 139 0.0 0.0 0.00 0.00 0.00 69 1007.9
20260504033255 39 129 0.0 0.0 0.00 0.00 0.00 69 1007.8
20260504032752 39 136 0.0 0.9 0.00 0.00 0.00 69 1007.7
20260504032249 39 140 0.0 0.9 0.00 0.00 0.00 69 1007.6
20260504031746 39 129 0.0 0.9 0.00 0.00 0.00 69 1007.7
20260504031243 39 130 0.0 0.0 0.00 0.00 0.00 70 1007.6
20260504030739 39 129 0.0 0.0 0.00 0.00 0.00 69 1007.7
20260504030237 39 128 0.0 0.0 0.00 0.00 0.00 69 1007.6
20260504025733 39 130 0.0 0.0 0.00 0.00 0.00 68 1007.7
20260504025230 39 131 0.0 0.0 0.00 0.00 0.00 67 1007.7
20260504024727 40 128 0.0 0.0 0.00 0.00 0.00 67 1007.7
20260504024223 40 126 0.0 0.0 0.00 0.00 0.00 66 1007.6
20260504023720 40 131 0.0 0.0 0.00 0.00 0.00 67 1007.6
20260504023216 40 134 0.0 0.0 0.00 0.00 0.00 67 1007.6
20260504022712 40 130 0.0 0.0 0.00 0.00 0.00 67 1007.6
20260504022208 40 126 0.0 0.0 0.00 0.00 0.00 66 1007.3
20260504021706 41 126 0.0 0.0 0.00 0.00 0.00 66 1007.6
20260504021203 41 126 0.0 0.0 0.00 0.00 0.00 66 1007.5
20260504020700 41 127 0.0 0.0 0.00 0.00 0.00 65 1007.6
20260504020155 41 127 0.0 0.0 0.00 0.00 0.00 66 1007.7
20260504015652 41 127 0.0 0.0 0.00 0.00 0.00 65 1007.3
20260504015149 41 127 0.0 0.9 0.00 0.00 0.00 65 1007.5
20260504014644 41 131 0.0 0.0 0.00 0.00 0.00 64 1007.3
20260504014142 42 138 0.0 0.9 0.00 0.00 0.00 63 1007.4
20260504013639 42 127 0.0 0.0 0.00 0.00 0.00 63 1007.3
20260504013136 42 123 0.0 0.0 0.00 0.00 0.00 62 1007.3
20260504012633 42 123 0.0 0.0 0.00 0.00 0.00 60 1007.1
20260504012131 42 123 0.0 0.0 0.00 0.00 0.00 57 1007.2
20260504011628 43 123 0.0 0.0 0.00 0.00 0.00 58 1007.0
20260504011124 43 123 0.0 0.0 0.00 0.00 0.00 57 1007.1
20260504010620 43 123 0.0 0.0 0.00 0.00 0.00 57 1006.9
20260504010116 43 123 0.0 0.0 0.00 0.00 0.00 57 1006.9
20260504005613 44 123 0.0 0.0 0.00 0.00 0.00 57 1006.7
20260504005110 44 123 0.0 0.0 0.00 0.00 0.00 56 1006.7
20260504004608 44 123 0.0 0.0 0.00 0.00 0.00 53 1006.7
20260504004105 44 123 0.0 0.0 0.00 0.00 0.00 54 1006.7
20260504003601 45 123 0.0 0.0 0.00 0.00 0.00 52 1006.5
20260504003058 45 123 0.0 0.0 0.00 0.00 0.00 52 1006.6
20260504002555 45 122 0.0 0.0 0.00 0.00 0.00 52 1006.6
20260504002053 46 122 0.0 0.0 0.00 0.00 0.00 50 1006.4
20260504001550 46 122 0.0 0.0 0.00 0.00 0.00 49 1006.3
20260504001046 47 122 0.0 0.0 0.00 0.00 0.00 50 1006.5
20260504000543 48 122 0.0 0.0 0.00 0.00 0.00 46 1006.2
20260504000041 48 122 0.0 0.0 0.00 0.00 0.00 46 1006.2
20260503235539 49 123 0.0 0.0 0.00 0.00 0.00 45 1006.2
20260503235035 50 127 0.0 0.9 0.00 0.00 0.00 42 1006.3
20260503234533 50 126 0.0 0.9 0.00 0.00 0.00 40 1006.2
20260503234031 50 115 0.9 1.7 0.00 0.00 0.00 40 1006.0
20260503233527 50 120 0.0 0.0 0.00 0.00 0.00 41 1006.1
20260503233023 50 193 0.9 0.9 0.00 0.00 0.00 40 1006.1
20260503232520 50 110 0.0 0.9 0.00 0.00 0.00 40 1005.9
20260503232018 50 119 0.9 0.9 0.00 0.00 0.00 40 1005.9
20260503231516 50 142 0.9 2.6 0.00 0.00 0.00 40 1005.9
20260503231012 51 188 0.9 1.7 0.00 0.00 0.00 39 1005.8
20260503230509 51 123 0.9 0.9 0.00 0.00 0.00 39 1005.8
20260503230006 51 163 0.0 0.9 0.00 0.00 0.00 39 1005.8
20260503225503 51 82 0.9 0.9 0.00 0.00 0.00 40 1005.6
20260503224958 51 104 0.0 1.7 0.00 0.00 0.00 39 1005.7
20260503224455 51 127 0.0 0.9 0.00 0.00 0.00 38 1005.6